Time,TemperatureF,DewpointF,PressureIn,WindDirection,WindDirectionDegrees,WindSpeedMPH,WindSpeedGustMPH,Humidity,HourlyPrecipIn,Conditions,Clouds,dailyrainin,SoftwareType,DateUTC
2013-12-12 00:01:00,6.9,0.9,30.60,WNW,292,5.0,5.0,76,0.00,,,0.00,Wunderground v.1.15,2013-12-12 05:01:00,
2013-12-12 00:02:00,6.9,0.9,30.60,East,96,5.0,5.0,76,0.00,,,0.00,Wunderground v.1.15,2013-12-12 05:02:00,
2013-12-12 00:04:00,6.7,0.7,30.60,NNW,332,4.0,5.0,76,0.00,,,0.00,Wunderground v.1.15,2013-12-12 05:04:00,
2013-12-12 00:06:00,6.6,0.6,30.60,West,280,4.0,5.0,76,0.00,,,0.00,Wunderground v.1.15,2013-12-12 05:06:00,
2013-12-12 00:09:00,6.5,0.5,30.60,NW,307,4.0,6.0,76,0.00,,,0.00,Wunderground v.1.15,2013-12-12 05:09:00,
2013-12-12 00:11:00,6.5,0.5,30.60,West,277,4.0,7.0,76,0.00,,,0.00,Wunderground v.1.15,2013-12-12 05:11:00,
2013-12-12 00:17:00,6.4,0.4,30.61,WNW,285,5.0,7.0,76,0.00,,,0.00,Wunderground v.1.15,2013-12-12 05:17:00,
2013-12-12 00:23:00,6.3,0.3,30.60,West,266,5.0,7.0,76,0.00,,,0.00,Wunderground v.1.15,2013-12-12 05:23:00,
2013-12-12 00:29:00,6.2,0.3,30.61,WNW,282,5.0,10.0,76,0.00,,,0.00,Wunderground v.1.15,2013-12-12 05:29:00,
2013-12-12 00:34:00,6.1,0.2,30.61,NNW,344,5.0,5.0,76,0.00,,,0.00,Wunderground v.1.15,2013-12-12 05:34:00,
2013-12-12 00:40:00,5.9,0.0,30.62,West,262,6.0,9.0,76,0.00,,,0.00,Wunderground v.1.15,2013-12-12 05:40:00,
2013-12-12 00:46:00,5.7,0.0,30.62,West,270,6.0,7.0,77,0.00,,,0.00,Wunderground v.1.15,2013-12-12 05:46:00,
2013-12-12 00:52:00,5.6,-0.1,30.62,ESE,123,6.0,9.0,77,0.00,,,0.00,Wunderground v.1.15,2013-12-12 05:52:00,
2013-12-12 00:58:00,5.5,0.1,30.62,NW,307,6.0,11.0,78,0.00,,,0.00,Wunderground v.1.15,2013-12-12 05:58:00,
2013-12-12 01:04:00,5.3,-0.1,30.62,NNW,335,5.0,9.0,78,0.00,,,0.00,Wunderground v.1.15,2013-12-12 06:04:00,
2013-12-12 01:10:00,5.2,-0.2,30.62,NNW,335,6.0,9.0,78,0.00,,,0.00,Wunderground v.1.15,2013-12-12 06:10:00,
2013-12-12 01:16:00,5.1,-0.3,30.62,WNW,302,6.0,9.0,78,0.00,,,0.00,Wunderground v.1.15,2013-12-12 06:16:00,
2013-12-12 01:22:00,5.0,-0.4,30.62,WNW,285,6.0,6.0,78,0.00,,,0.00,Wunderground v.1.15,2013-12-12 06:22:00,
2013-12-12 01:28:00,4.8,-0.6,30.62,North,10,5.0,6.0,78,0.00,,,0.00,Wunderground v.1.15,2013-12-12 06:28:00,
2013-12-12 01:33:00,4.8,-0.3,30.62,WNW,291,5.0,7.0,79,0.00,,,0.00,Wunderground v.1.15,2013-12-12 06:33:00,
2013-12-12 01:39:00,4.6,-0.5,30.62,NNW,344,5.0,7.0,79,0.00,,,0.00,Wunderground v.1.15,2013-12-12 06:39:00,
2013-12-12 01:45:00,4.5,-0.3,30.62,WSW,257,5.0,8.0,80,0.00,,,0.00,Wunderground v.1.15,2013-12-12 06:45:00,
2013-12-12 01:51:00,4.4,-0.4,30.62,West,277,5.0,5.0,80,0.00,,,0.00,Wunderground v.1.15,2013-12-12 06:51:00,
2013-12-12 01:57:00,4.3,-0.5,30.62,WNW,300,4.0,7.0,80,0.00,,,0.00,Wunderground v.1.15,2013-12-12 06:57:00,
2013-12-12 02:03:00,4.2,-0.6,30.62,SSW,200,4.0,5.0,80,0.00,,,0.00,Wunderground v.1.15,2013-12-12 07:03:00,
2013-12-12 02:09:00,4.2,-0.6,30.61,NNE,16,4.0,5.0,80,0.00,,,0.00,Wunderground v.1.15,2013-12-12 07:09:00,
2013-12-12 02:15:00,4.1,-0.7,30.62,SW,226,3.0,5.0,80,0.00,,,0.00,Wunderground v.1.15,2013-12-12 07:15:00,
2013-12-12 02:21:00,4.0,-1.1,30.61,WSW,240,3.0,5.0,79,0.00,,,0.00,Wunderground v.1.15,2013-12-12 07:21:00,
2013-12-12 02:27:00,3.9,-1.2,30.62,SW,231,4.0,5.0,79,0.00,,,0.00,Wunderground v.1.15,2013-12-12 07:27:00,
2013-12-12 02:33:00,3.8,-1.3,30.62,SW,235,4.0,5.0,79,0.00,,,0.00,Wunderground v.1.15,2013-12-12 07:33:00,
2013-12-12 02:39:00,3.7,-1.4,30.61,South,187,5.0,8.0,79,0.00,,,0.00,Wunderground v.1.15,2013-12-12 07:39:00,
2013-12-12 02:45:00,3.6,-1.5,30.62,SW,228,5.0,6.0,79,0.00,,,0.00,Wunderground v.1.15,2013-12-12 07:45:00,
2013-12-12 02:51:00,3.5,-1.6,30.62,West,281,5.0,5.0,79,0.00,,,0.00,Wunderground v.1.15,2013-12-12 07:51:00,
2013-12-12 02:57:00,3.4,-1.7,30.62,SW,218,4.0,7.0,79,0.00,,,0.00,Wunderground v.1.15,2013-12-12 07:57:00,
2013-12-12 03:03:00,3.3,-1.7,30.61,WSW,245,4.0,5.0,79,0.00,,,0.00,Wunderground v.1.15,2013-12-12 08:03:00,
2013-12-12 03:08:00,3.3,-1.7,30.61,SE,136,4.0,5.0,79,0.00,,,0.00,Wunderground v.1.15,2013-12-12 08:08:00,
2013-12-12 03:14:00,3.2,-1.8,30.61,SW,229,4.0,5.0,79,0.00,,,0.00,Wunderground v.1.15,2013-12-12 08:14:00,
2013-12-12 03:19:00,3.1,-1.9,30.61,SW,235,3.0,5.0,79,0.00,,,0.00,Wunderground v.1.15,2013-12-12 08:19:00,
2013-12-12 03:25:00,2.9,-2.4,30.61,WSW,243,3.0,5.0,78,0.00,,,0.00,Wunderground v.1.15,2013-12-12 08:25:00,
2013-12-12 03:31:00,2.8,-2.5,30.61,SW,226,4.0,4.0,78,0.00,,,0.00,Wunderground v.1.15,2013-12-12 08:31:00,
2013-12-12 03:37:00,2.6,-2.7,30.60,WSW,246,4.0,5.0,78,0.00,,,0.00,Wunderground v.1.15,2013-12-12 08:37:00,
2013-12-12 03:43:00,2.4,-2.6,30.60,West,278,3.0,5.0,79,0.00,,,0.00,Wunderground v.1.15,2013-12-12 08:43:00,
2013-12-12 03:49:00,2.2,-2.8,30.61,NNW,337,3.0,5.0,79,0.00,,,0.00,Wunderground v.1.15,2013-12-12 08:49:00,
2013-12-12 03:55:00,2.2,-3.1,30.61,WSW,257,3.0,5.0,78,0.00,,,0.00,Wunderground v.1.15,2013-12-12 08:55:00,
2013-12-12 04:01:00,2.1,-3.2,30.61,West,262,3.0,3.0,78,0.00,,,0.00,Wunderground v.1.15,2013-12-12 09:01:00,
2013-12-12 04:07:00,1.9,-3.4,30.60,SW,226,3.0,5.0,78,0.00,,,0.00,Wunderground v.1.15,2013-12-12 09:07:00,
2013-12-12 04:13:00,1.8,-3.5,30.60,WNW,283,2.0,5.0,78,0.00,,,0.00,Wunderground v.1.15,2013-12-12 09:13:00,
2013-12-12 04:19:00,1.7,-3.6,30.60,SW,219,2.0,5.0,78,0.00,,,0.00,Wunderground v.1.15,2013-12-12 09:19:00,
2013-12-12 04:25:00,1.6,-3.9,30.60,SW,232,3.0,5.0,77,0.00,,,0.00,Wunderground v.1.15,2013-12-12 09:25:00,
2013-12-12 04:31:00,1.4,-4.1,30.60,West,270,3.0,3.0,77,0.00,,,0.00,Wunderground v.1.15,2013-12-12 09:31:00,
2013-12-12 04:37:00,1.3,-4.2,30.60,WSW,240,3.0,5.0,77,0.00,,,0.00,Wunderground v.1.15,2013-12-12 09:37:00,
2013-12-12 04:43:00,1.4,-4.1,30.60,SW,232,4.0,5.0,77,0.00,,,0.00,Wunderground v.1.15,2013-12-12 09:43:00,
2013-12-12 04:48:00,1.3,-4.0,30.61,WSW,245,4.0,5.0,78,0.00,,,0.00,Wunderground v.1.15,2013-12-12 09:48:00,
2013-12-12 04:54:00,1.3,-4.0,30.60,SW,228,4.0,5.0,78,0.00,,,0.00,Wunderground v.1.15,2013-12-12 09:54:00,
2013-12-12 05:01:00,1.3,-4.0,30.61,SW,221,6.0,6.0,78,0.00,,,0.00,Wunderground v.1.15,2013-12-12 10:01:00,
2013-12-12 05:07:00,1.2,-4.1,30.61,West,273,5.0,8.0,78,0.00,,,0.00,Wunderground v.1.15,2013-12-12 10:07:00,
2013-12-12 05:13:00,1.0,-4.3,30.61,SW,235,3.0,5.0,78,0.00,,,0.00,Wunderground v.1.15,2013-12-12 10:13:00,
2013-12-12 05:19:00,0.9,-4.6,30.61,NW,320,3.0,5.0,77,0.00,,,0.00,Wunderground v.1.15,2013-12-12 10:19:00,
2013-12-12 05:25:00,0.8,-4.7,30.61,SW,230,3.0,6.0,77,0.00,,,0.00,Wunderground v.1.15,2013-12-12 10:25:00,
2013-12-12 05:31:00,0.7,-4.8,30.60,SW,219,4.0,4.0,77,0.00,,,0.00,Wunderground v.1.15,2013-12-12 10:31:00,
2013-12-12 05:37:00,0.6,-4.6,30.60,WSW,242,4.0,6.0,78,0.00,,,0.00,Wunderground v.1.15,2013-12-12 10:37:00,
2013-12-12 05:43:00,0.4,-4.6,30.61,SW,226,5.0,5.0,79,0.00,,,0.00,Wunderground v.1.15,2013-12-12 10:43:00,
2013-12-12 05:48:00,0.4,-4.6,30.60,WSW,239,5.0,5.0,79,0.00,,,0.00,Wunderground v.1.15,2013-12-12 10:48:00,
2013-12-12 05:54:00,0.4,-4.6,30.60,WSW,250,3.0,5.0,79,0.00,,,0.00,Wunderground v.1.15,2013-12-12 10:54:00,
2013-12-12 06:01:00,0.3,-4.4,30.60,SW,232,2.0,5.0,80,0.00,,,0.00,Wunderground v.1.15,2013-12-12 11:01:00,
2013-12-12 06:07:00,0.3,-4.4,30.60,SSW,211,3.0,5.0,80,0.00,,,0.00,Wunderground v.1.15,2013-12-12 11:07:00,
2013-12-12 06:13:00,0.2,-4.5,30.60,SW,215,3.0,5.0,80,0.00,,,0.00,Wunderground v.1.15,2013-12-12 11:13:00,
2013-12-12 06:19:00,0.2,-4.3,30.60,SW,235,2.0,5.0,81,0.00,,,0.00,Wunderground v.1.15,2013-12-12 11:19:00,
2013-12-12 06:24:00,0.2,-4.3,30.60,WSW,246,2.0,5.0,81,0.00,,,0.00,Wunderground v.1.15,2013-12-12 11:24:00,
2013-12-12 06:30:00,0.1,-4.3,30.60,SW,218,2.0,5.0,81,0.00,,,0.00,Wunderground v.1.15,2013-12-12 11:30:00,
2013-12-12 06:36:00,0.0,-4.4,30.60,SSW,213,3.0,5.0,81,0.00,,,0.00,Wunderground v.1.15,2013-12-12 11:36:00,
2013-12-12 06:42:00,-0.1,-4.5,30.59,SSW,200,3.0,5.0,81,0.00,,,0.00,Wunderground v.1.15,2013-12-12 11:42:00,
2013-12-12 06:48:00,-0.3,-4.7,30.59,SW,221,3.0,5.0,81,0.00,,,0.00,Wunderground v.1.15,2013-12-12 11:48:00,
2013-12-12 06:54:00,-0.3,-4.7,30.60,SSW,209,3.0,5.0,81,0.00,,,0.00,Wunderground v.1.15,2013-12-12 11:54:00,
2013-12-12 07:01:00,-0.3,-4.5,30.60,SW,225,3.0,5.0,82,0.00,,,0.00,Wunderground v.1.15,2013-12-12 12:01:00,
2013-12-12 07:07:00,-0.3,-4.5,30.60,SSW,199,4.0,5.0,82,0.00,,,0.00,Wunderground v.1.15,2013-12-12 12:07:00,
2013-12-12 07:13:00,-0.3,-4.5,30.60,SW,219,4.0,5.0,82,0.00,,,0.00,Wunderground v.1.15,2013-12-12 12:13:00,
2013-12-12 07:19:00,-0.2,-4.4,30.60,SW,228,4.0,5.0,82,0.00,,,0.00,Wunderground v.1.15,2013-12-12 12:19:00,
2013-12-12 07:25:00,-0.2,-4.4,30.60,SSW,204,4.0,5.0,82,0.00,,,0.00,Wunderground v.1.15,2013-12-12 12:25:00,
2013-12-12 07:31:00,-0.2,-4.4,30.60,SW,222,4.0,6.0,82,0.00,,,0.00,Wunderground v.1.15,2013-12-12 12:31:00,
2013-12-12 07:37:00,-0.2,-4.4,30.60,SW,224,4.0,6.0,82,0.00,,,0.00,Wunderground v.1.15,2013-12-12 12:37:00,
2013-12-12 07:43:00,-0.1,-4.0,30.60,SW,231,5.0,6.0,83,0.00,,,0.00,Wunderground v.1.15,2013-12-12 12:43:00,
2013-12-12 07:49:00,-0.1,-4.0,30.60,SW,214,5.0,6.0,83,0.00,,,0.00,Wunderground v.1.15,2013-12-12 12:49:00,
2013-12-12 07:55:00,-0.1,-4.3,30.60,SW,226,5.0,6.0,82,0.00,,,0.00,Wunderground v.1.15,2013-12-12 12:55:00,
2013-12-12 08:01:00,0.0,-3.9,30.59,SSW,208,4.0,5.0,83,0.00,,,0.00,Wunderground v.1.15,2013-12-12 13:01:00,
2013-12-12 08:07:00,0.1,-3.8,30.59,SSW,212,5.0,6.0,83,0.00,,,0.00,Wunderground v.1.15,2013-12-12 13:07:00,
2013-12-12 08:13:00,0.3,-3.6,30.59,SSW,207,5.0,5.0,83,0.00,,,0.00,Wunderground v.1.15,2013-12-12 13:13:00,
2013-12-12 08:18:00,0.5,-3.4,30.59,SSW,205,4.0,5.0,83,0.00,,,0.00,Wunderground v.1.15,2013-12-12 13:18:00,
2013-12-12 08:24:00,0.9,-3.1,30.59,SSW,200,4.0,5.0,83,0.00,,,0.00,Wunderground v.1.15,2013-12-12 13:24:00,
2013-12-12 08:30:00,1.2,-3.0,30.59,SSW,193,4.0,6.0,82,0.00,,,0.00,Wunderground v.1.15,2013-12-12 13:30:00,
2013-12-12 08:36:00,1.5,-2.7,30.60,SSW,207,4.0,6.0,82,0.00,,,0.00,Wunderground v.1.15,2013-12-12 13:36:00,
2013-12-12 08:42:00,1.8,-2.4,30.59,SSW,207,5.0,5.0,82,0.00,,,0.00,Wunderground v.1.15,2013-12-12 13:42:00,
2013-12-12 08:48:00,2.2,-2.0,30.60,WSW,242,4.0,6.0,82,0.00,,,0.00,Wunderground v.1.15,2013-12-12 13:48:00,
2013-12-12 08:54:00,2.6,-1.9,30.60,SSW,212,5.0,6.0,81,0.00,,,0.00,Wunderground v.1.15,2013-12-12 13:54:00,
2013-12-12 08:59:00,3.0,-1.5,30.59,SSW,210,5.0,6.0,81,0.00,,,0.00,Wunderground v.1.15,2013-12-12 13:59:00,
2013-12-12 09:05:00,3.4,-1.1,30.59,SW,214,6.0,11.0,81,0.00,,,0.00,Wunderground v.1.15,2013-12-12 14:05:00,
2013-12-12 09:11:00,3.8,-1.0,30.58,SSW,205,6.0,6.0,80,0.00,,,0.00,Wunderground v.1.15,2013-12-12 14:11:00,
2013-12-12 09:17:00,4.0,-1.1,30.58,SW,218,6.0,8.0,79,0.00,,,0.00,Wunderground v.1.15,2013-12-12 14:17:00,
2013-12-12 09:23:00,4.1,-1.2,30.59,SW,219,7.0,10.0,78,0.00,,,0.00,Wunderground v.1.15,2013-12-12 14:23:00,
2013-12-12 09:29:00,4.3,-1.0,30.59,SW,226,7.0,10.0,78,0.00,,,0.00,Wunderground v.1.15,2013-12-12 14:29:00,
2013-12-12 09:35:00,4.3,-1.6,30.59,SW,225,7.0,11.0,76,0.00,,,0.00,Wunderground v.1.15,2013-12-12 14:35:00,
2013-12-12 09:40:00,4.7,-0.9,30.59,SSW,212,7.0,11.0,77,0.00,,,0.00,Wunderground v.1.15,2013-12-12 14:40:00,
2013-12-12 09:46:00,5.2,-0.4,30.59,SW,224,6.0,9.0,77,0.00,,,0.00,Wunderground v.1.15,2013-12-12 14:46:00,
2013-12-12 09:52:00,5.6,-0.6,30.59,SSW,201,7.0,10.0,75,0.00,,,0.00,Wunderground v.1.15,2013-12-12 14:52:00,
2013-12-12 09:58:00,6.1,-0.1,30.58,SSW,211,8.0,12.0,75,0.00,,,0.00,Wunderground v.1.15,2013-12-12 14:58:00,
2013-12-12 10:04:00,6.7,0.2,30.59,SW,229,7.0,8.0,74,0.00,,,0.00,Wunderground v.1.15,2013-12-12 15:04:00,
2013-12-12 10:10:00,7.2,0.7,30.59,WSW,240,7.0,9.0,74,0.00,,,0.00,Wunderground v.1.15,2013-12-12 15:10:00,
2013-12-12 10:16:00,7.7,0.8,30.59,South,173,7.0,9.0,73,0.00,,,0.00,Wunderground v.1.15,2013-12-12 15:16:00,
2013-12-12 10:21:00,7.7,0.5,30.58,SSW,205,8.0,10.0,72,0.00,,,0.00,Wunderground v.1.15,2013-12-12 15:21:00,
2013-12-12 10:27:00,7.7,0.5,30.58,SSW,204,10.0,12.0,72,0.00,,,0.00,Wunderground v.1.15,2013-12-12 15:27:00,
2013-12-12 10:33:00,7.8,0.3,30.58,SSW,210,9.0,10.0,71,0.00,,,0.00,Wunderground v.1.15,2013-12-12 15:33:00,
2013-12-12 10:39:00,8.1,0.9,30.58,SSW,204,8.0,11.0,72,0.00,,,0.00,Wunderground v.1.15,2013-12-12 15:39:00,
2013-12-12 10:45:00,8.3,0.8,30.57,SSW,212,9.0,10.0,71,0.00,,,0.00,Wunderground v.1.15,2013-12-12 15:45:00,
2013-12-12 10:51:00,8.7,0.9,30.57,SSW,207,9.0,10.0,70,0.00,,,0.00,Wunderground v.1.15,2013-12-12 15:51:00,
2013-12-12 10:57:00,8.9,1.1,30.57,SW,215,10.0,14.0,70,0.00,,,0.00,Wunderground v.1.15,2013-12-12 15:57:00,
2013-12-12 11:03:00,9.2,1.4,30.56,SW,229,10.0,10.0,70,0.00,,,0.00,Wunderground v.1.15,2013-12-12 16:03:00,
2013-12-12 11:09:00,9.6,1.5,30.56,SSW,205,9.0,12.0,69,0.00,,,0.00,Wunderground v.1.15,2013-12-12 16:09:00,
2013-12-12 11:15:00,10.2,2.4,30.55,South,177,9.0,10.0,70,0.00,,,0.00,Wunderground v.1.15,2013-12-12 16:15:00,
2013-12-12 11:20:00,10.4,1.9,30.55,SSW,212,10.0,15.0,68,0.00,,,0.00,Wunderground v.1.15,2013-12-12 16:20:00,
2013-12-12 11:26:00,11.1,2.9,30.55,SSW,210,10.0,10.0,69,0.00,,,0.00,Wunderground v.1.15,2013-12-12 16:26:00,
2013-12-12 11:32:00,11.5,2.7,30.54,SSW,204,10.0,10.0,67,0.00,,,0.00,Wunderground v.1.15,2013-12-12 16:32:00,
2013-12-12 11:38:00,12.0,2.8,30.54,South,191,10.0,10.0,66,0.00,,,0.00,Wunderground v.1.15,2013-12-12 16:38:00,
2013-12-12 11:44:00,12.6,3.1,30.54,SSW,205,9.0,10.0,65,0.00,,,0.00,Wunderground v.1.15,2013-12-12 16:44:00,
2013-12-12 11:50:00,13.0,2.8,30.53,SSW,210,10.0,12.0,63,0.00,,,0.00,Wunderground v.1.15,2013-12-12 16:50:00,
2013-12-12 11:56:00,13.4,3.1,30.53,SSW,201,11.0,14.0,63,0.00,,,0.00,Wunderground v.1.15,2013-12-12 16:56:00,
2013-12-12 12:01:00,13.9,3.6,30.53,SW,226,10.0,13.0,63,0.00,,,0.00,Wunderground v.1.15,2013-12-12 17:01:00,
2013-12-12 12:07:00,14.0,3.0,30.53,SW,215,10.0,16.0,61,0.00,,,0.00,Wunderground v.1.15,2013-12-12 17:07:00,
2013-12-12 12:13:00,14.1,3.5,30.53,SW,236,12.0,17.0,62,0.00,,,0.00,Wunderground v.1.15,2013-12-12 17:13:00,
2013-12-12 12:19:00,14.3,4.0,30.52,SW,219,12.0,17.0,63,0.00,,,0.00,Wunderground v.1.15,2013-12-12 17:19:00,
2013-12-12 12:25:00,14.9,4.2,30.51,SW,222,11.0,14.0,62,0.00,,,0.00,Wunderground v.1.15,2013-12-12 17:25:00,
2013-12-12 12:31:00,15.3,4.6,30.51,SSW,210,10.0,12.0,62,0.00,,,0.00,Wunderground v.1.15,2013-12-12 17:31:00,
2013-12-12 12:37:00,15.4,4.7,30.50,SW,222,11.0,15.0,62,0.00,,,0.00,Wunderground v.1.15,2013-12-12 17:37:00,
2013-12-12 12:43:00,15.9,5.2,30.50,SSW,203,11.0,13.0,62,0.00,,,0.00,Wunderground v.1.15,2013-12-12 17:43:00,
2013-12-12 12:48:00,16.6,5.1,30.49,SW,214,11.0,13.0,60,0.00,,,0.00,Wunderground v.1.15,2013-12-12 17:48:00,
2013-12-12 12:54:00,17.0,5.1,30.49,South,179,12.0,19.0,59,0.00,,,0.00,Wunderground v.1.15,2013-12-12 17:54:00,
2013-12-12 13:01:00,17.5,6.0,30.49,West,262,12.0,12.0,60,0.00,,,0.00,Wunderground v.1.15,2013-12-12 18:01:00,
2013-12-12 13:07:00,18.1,6.2,30.48,South,191,11.0,12.0,59,0.00,,,0.00,Wunderground v.1.15,2013-12-12 18:07:00,
2013-12-12 13:13:00,18.4,6.4,30.48,SW,218,12.0,14.0,59,0.00,,,0.00,Wunderground v.1.15,2013-12-12 18:13:00,
2013-12-12 13:19:00,19.0,7.0,30.48,SW,228,11.0,16.0,59,0.00,,,0.00,Wunderground v.1.15,2013-12-12 18:19:00,
2013-12-12 13:25:00,19.6,6.4,30.48,SW,222,10.0,13.0,56,0.00,,,0.00,Wunderground v.1.15,2013-12-12 18:25:00,
2013-12-12 13:31:00,20.0,6.4,30.47,SW,224,10.0,14.0,55,0.00,,,0.00,Wunderground v.1.15,2013-12-12 18:31:00,
2013-12-12 13:37:00,20.3,6.7,30.47,SW,226,12.0,14.0,55,0.00,,,0.00,Wunderground v.1.15,2013-12-12 18:37:00,
2013-12-12 13:43:00,20.7,5.8,30.46,SSW,205,12.0,13.0,52,0.00,,,0.00,Wunderground v.1.15,2013-12-12 18:43:00,
2013-12-12 13:49:00,21.1,5.8,30.46,SSW,194,11.0,15.0,51,0.00,,,0.00,Wunderground v.1.15,2013-12-12 18:49:00,
2013-12-12 13:55:00,21.4,7.3,30.45,SW,229,11.0,12.0,54,0.00,,,0.00,Wunderground v.1.15,2013-12-12 18:55:00,
2013-12-12 14:01:00,22.0,6.6,30.45,SW,235,10.0,10.0,51,0.00,,,0.00,Wunderground v.1.15,2013-12-12 19:01:00,
2013-12-12 14:07:00,22.9,5.2,30.45,WSW,237,11.0,18.0,46,0.00,,,0.00,Wunderground v.1.15,2013-12-12 19:07:00,
2013-12-12 14:13:00,23.5,4.8,30.44,WSW,238,13.0,13.0,44,0.00,,,0.00,Wunderground v.1.15,2013-12-12 19:13:00,
2013-12-12 14:19:00,24.1,5.3,30.44,SW,235,12.0,14.0,44,0.00,,,0.00,Wunderground v.1.15,2013-12-12 19:19:00,
2013-12-12 14:25:00,24.1,3.8,30.43,WSW,240,14.0,23.0,41,0.00,,,0.00,Wunderground v.1.15,2013-12-12 19:25:00,
2013-12-12 14:31:00,24.3,3.9,30.43,WSW,237,15.0,16.0,41,0.00,,,0.00,Wunderground v.1.15,2013-12-12 19:31:00,
2013-12-12 14:37:00,24.3,3.4,30.43,WSW,245,14.0,24.0,40,0.00,,,0.00,Wunderground v.1.15,2013-12-12 19:37:00,
2013-12-12 14:42:00,24.4,4.0,30.43,SW,217,15.0,20.0,41,0.00,,,0.00,Wunderground v.1.15,2013-12-12 19:42:00,
2013-12-12 14:48:00,24.6,4.2,30.43,SSW,197,14.0,20.0,41,0.00,,,0.00,Wunderground v.1.15,2013-12-12 19:48:00,
2013-12-12 14:54:00,24.8,4.4,30.43,SW,235,14.0,22.0,41,0.00,,,0.00,Wunderground v.1.15,2013-12-12 19:54:00,
2013-12-12 15:01:00,25.0,3.5,30.42,SSW,208,15.0,15.0,39,0.00,,,0.00,Wunderground v.1.15,2013-12-12 20:01:00,
2013-12-12 15:07:00,25.2,3.1,30.42,SW,221,14.0,16.0,38,0.00,,,0.00,Wunderground v.1.15,2013-12-12 20:07:00,
2013-12-12 15:13:00,25.5,4.5,30.42,SW,226,12.0,12.0,40,0.00,,,0.00,Wunderground v.1.15,2013-12-12 20:13:00,
2013-12-12 15:18:00,25.5,2.8,30.42,WSW,250,12.0,18.0,37,0.00,,,0.00,Wunderground v.1.15,2013-12-12 20:18:00,
2013-12-12 15:24:00,25.6,2.9,30.41,WSW,253,13.0,21.0,37,0.00,,,0.00,Wunderground v.1.15,2013-12-12 20:24:00,
2013-12-12 15:30:00,25.5,3.9,30.41,SW,215,13.0,22.0,39,0.00,,,0.00,Wunderground v.1.15,2013-12-12 20:30:00,
2013-12-12 15:36:00,25.5,2.8,30.41,WSW,240,13.0,17.0,37,0.00,,,0.00,Wunderground v.1.15,2013-12-12 20:36:00,
2013-12-12 15:42:00,25.5,4.5,30.40,SW,227,13.0,18.0,40,0.00,,,0.00,Wunderground v.1.15,2013-12-12 20:42:00,
2013-12-12 15:48:00,25.5,4.5,30.41,SW,225,11.0,18.0,40,0.00,,,0.00,Wunderground v.1.15,2013-12-12 20:48:00,
2013-12-12 15:54:00,25.4,3.8,30.41,WSW,253,12.0,14.0,39,0.00,,,0.00,Wunderground v.1.15,2013-12-12 20:54:00,
2013-12-12 16:01:00,25.5,4.5,30.41,SW,217,11.0,17.0,40,0.00,,,0.00,Wunderground v.1.15,2013-12-12 21:01:00,
2013-12-12 16:07:00,25.3,4.8,30.41,SW,229,12.0,17.0,41,0.00,,,0.00,Wunderground v.1.15,2013-12-12 21:07:00,
2013-12-12 16:13:00,25.2,4.2,30.41,WSW,253,12.0,18.0,40,0.00,,,0.00,Wunderground v.1.15,2013-12-12 21:13:00,
2013-12-12 16:19:00,25.1,4.7,30.42,WSW,249,12.0,18.0,41,0.00,,,0.00,Wunderground v.1.15,2013-12-12 21:19:00,
2013-12-12 16:25:00,25.1,4.7,30.42,SW,228,11.0,18.0,41,0.00,,,0.00,Wunderground v.1.15,2013-12-12 21:25:00,
2013-12-12 16:27:00,25.0,4.0,30.41,SW,227,12.0,18.0,40,0.00,,,0.00,Wunderground v.1.15,2013-12-12 21:27:00,
2013-12-12 16:33:00,24.9,5.0,30.41,SSW,211,12.0,13.0,42,0.00,,,0.00,Wunderground v.1.15,2013-12-12 21:33:00,
2013-12-12 16:39:00,24.7,4.8,30.41,SW,236,10.0,13.0,42,0.00,,,0.00,Wunderground v.1.15,2013-12-12 21:39:00,
2013-12-12 16:45:00,24.4,4.0,30.41,SW,233,11.0,15.0,41,0.00,,,0.00,Wunderground v.1.15,2013-12-12 21:45:00,
2013-12-12 16:51:00,23.9,4.1,30.41,SSE,165,11.0,11.0,42,0.00,,,0.00,Wunderground v.1.15,2013-12-12 21:51:00,
2013-12-12 16:57:00,23.6,4.3,30.41,SW,219,9.0,11.0,43,0.00,,,0.00,Wunderground v.1.15,2013-12-12 21:57:00,
2013-12-12 17:02:00,23.2,4.0,30.41,SW,233,10.0,12.0,43,0.00,,,0.00,Wunderground v.1.15,2013-12-12 22:02:00,
2013-12-12 17:08:00,22.8,4.1,30.41,SW,215,10.0,13.0,44,0.00,,,0.00,Wunderground v.1.15,2013-12-12 22:08:00,
2013-12-12 17:14:00,22.4,4.2,30.41,WSW,238,9.0,10.0,45,0.00,,,0.00,Wunderground v.1.15,2013-12-12 22:14:00,
2013-12-12 17:20:00,22.1,4.4,30.41,SSW,201,8.0,11.0,46,0.00,,,0.00,Wunderground v.1.15,2013-12-12 22:20:00,
2013-12-12 17:26:00,21.8,4.2,30.41,SW,226,9.0,12.0,46,0.00,,,0.00,Wunderground v.1.15,2013-12-12 22:26:00,
2013-12-12 17:32:00,21.7,4.1,30.41,SW,227,10.0,15.0,46,0.00,,,0.00,Wunderground v.1.15,2013-12-12 22:32:00,
2013-12-12 17:38:00,21.5,3.9,30.40,SSW,208,10.0,15.0,46,0.00,,,0.00,Wunderground v.1.15,2013-12-12 22:38:00,
2013-12-12 17:43:00,21.3,4.6,30.40,SW,228,9.0,11.0,48,0.00,,,0.00,Wunderground v.1.15,2013-12-12 22:43:00,
2013-12-12 17:49:00,20.8,5.1,30.41,WSW,238,8.0,11.0,50,0.00,,,0.00,Wunderground v.1.15,2013-12-12 22:49:00,
2013-12-12 17:55:00,20.4,5.1,30.41,SSW,198,7.0,8.0,51,0.00,,,0.00,Wunderground v.1.15,2013-12-12 22:55:00,
2013-12-12 18:01:00,20.1,5.3,30.41,SW,217,7.0,8.0,52,0.00,,,0.00,Wunderground v.1.15,2013-12-12 23:01:00,
2013-12-12 18:07:00,19.9,5.5,30.40,SW,222,7.0,8.0,53,0.00,,,0.00,Wunderground v.1.15,2013-12-12 23:07:00,
2013-12-12 18:13:00,19.7,5.3,30.41,SW,235,6.0,10.0,53,0.00,,,0.00,Wunderground v.1.15,2013-12-12 23:13:00,
2013-12-12 18:19:00,19.6,5.2,30.40,SW,227,7.0,12.0,53,0.00,,,0.00,Wunderground v.1.15,2013-12-12 23:19:00,
2013-12-12 18:24:00,19.6,5.2,30.40,South,170,8.0,9.0,53,0.00,,,0.00,Wunderground v.1.15,2013-12-12 23:24:00,
2013-12-12 18:30:00,19.4,5.0,30.40,WSW,240,7.0,10.0,53,0.00,,,0.00,Wunderground v.1.15,2013-12-12 23:30:00,
2013-12-12 18:36:00,19.4,5.0,30.40,South,180,7.0,10.0,53,0.00,,,0.00,Wunderground v.1.15,2013-12-12 23:36:00,
2013-12-12 18:42:00,19.3,4.5,30.40,SW,225,9.0,10.0,52,0.00,,,0.00,Wunderground v.1.15,2013-12-12 23:42:00,
2013-12-12 18:48:00,19.2,4.4,30.40,SSW,212,8.0,10.0,52,0.00,,,0.00,Wunderground v.1.15,2013-12-12 23:48:00,
2013-12-12 18:54:00,18.9,4.6,30.41,SW,229,7.0,12.0,53,0.00,,,0.00,Wunderground v.1.15,2013-12-12 23:54:00,
2013-12-12 19:01:00,18.9,4.1,30.41,WSW,243,9.0,10.0,52,0.00,,,0.00,Wunderground v.1.15,2013-12-13 00:01:00,
2013-12-12 19:07:00,18.7,4.0,30.40,SW,236,9.0,16.0,52,0.00,,,0.00,Wunderground v.1.15,2013-12-13 00:07:00,
2013-12-12 19:13:00,18.6,3.9,30.40,SW,225,9.0,13.0,52,0.00,,,0.00,Wunderground v.1.15,2013-12-13 00:13:00,
2013-12-12 19:19:00,18.4,4.1,30.40,SSW,205,8.0,13.0,53,0.00,,,0.00,Wunderground v.1.15,2013-12-13 00:19:00,
2013-12-12 19:25:00,18.2,3.9,30.40,SSW,194,7.0,9.0,53,0.00,,,0.00,Wunderground v.1.15,2013-12-13 00:25:00,
2013-12-12 19:31:00,18.0,3.7,30.41,SW,221,7.0,8.0,53,0.00,,,0.00,Wunderground v.1.15,2013-12-13 00:31:00,
2013-12-12 19:37:00,17.9,3.6,30.41,SW,215,8.0,12.0,53,0.00,,,0.00,Wunderground v.1.15,2013-12-13 00:37:00,
2013-12-12 19:43:00,17.8,3.9,30.41,SW,222,9.0,9.0,54,0.00,,,0.00,Wunderground v.1.15,2013-12-13 00:43:00,
2013-12-12 19:49:00,17.5,3.7,30.41,WSW,238,7.0,10.0,54,0.00,,,0.00,Wunderground v.1.15,2013-12-13 00:49:00,
2013-12-12 19:54:00,17.4,3.6,30.41,SW,224,7.0,8.0,54,0.00,,,0.00,Wunderground v.1.15,2013-12-13 00:54:00,
2013-12-12 20:01:00,17.2,3.8,30.40,SW,228,7.0,7.0,55,0.00,,,0.00,Wunderground v.1.15,2013-12-13 01:01:00,
2013-12-12 20:07:00,17.1,4.1,30.40,SW,236,8.0,9.0,56,0.00,,,0.00,Wunderground v.1.15,2013-12-13 01:07:00,
2013-12-12 20:13:00,17.0,4.0,30.40,SW,215,8.0,9.0,56,0.00,,,0.00,Wunderground v.1.15,2013-12-13 01:13:00,
2013-12-12 20:19:00,17.0,4.0,30.40,SW,215,9.0,9.0,56,0.00,,,0.00,Wunderground v.1.15,2013-12-13 01:19:00,
2013-12-12 20:24:00,17.0,4.0,30.40,SW,226,8.0,12.0,56,0.00,,,0.00,Wunderground v.1.15,2013-12-13 01:24:00,
2013-12-12 20:30:00,17.0,4.0,30.40,West,259,8.0,12.0,56,0.00,,,0.00,Wunderground v.1.15,2013-12-13 01:30:00,
2013-12-12 20:36:00,16.9,3.9,30.40,SW,218,6.0,7.0,56,0.00,,,0.00,Wunderground v.1.15,2013-12-13 01:36:00,
2013-12-12 20:42:00,16.8,3.8,30.40,SSW,208,5.0,5.0,56,0.00,,,0.00,Wunderground v.1.15,2013-12-13 01:42:00,
2013-12-12 20:48:00,16.7,4.1,30.40,SW,227,4.0,7.0,57,0.00,,,0.00,Wunderground v.1.15,2013-12-13 01:48:00,
2013-12-12 20:54:00,16.4,4.6,30.40,SSW,201,4.0,5.0,59,0.00,,,0.00,Wunderground v.1.15,2013-12-13 01:54:00,
2013-12-12 21:01:00,15.9,4.8,30.40,SSE,162,4.0,4.0,61,0.00,,,0.00,Wunderground v.1.15,2013-12-13 02:01:00,
2013-12-12 21:07:00,15.5,5.1,30.40,SSW,208,4.0,5.0,63,0.00,,,0.00,Wunderground v.1.15,2013-12-13 02:07:00,
2013-12-12 21:13:00,15.2,5.2,30.40,South,179,4.0,5.0,64,0.00,,,0.00,Wunderground v.1.15,2013-12-13 02:13:00,
2013-12-12 21:18:00,15.0,5.3,30.40,SSW,205,3.0,5.0,65,0.00,,,0.00,Wunderground v.1.15,2013-12-13 02:18:00,
2013-12-12 21:24:00,14.9,5.2,30.40,SSW,197,2.0,5.0,65,0.00,,,0.00,Wunderground v.1.15,2013-12-13 02:24:00,
2013-12-12 21:29:00,14.8,5.5,30.40,SSW,195,3.0,5.0,66,0.00,,,0.00,Wunderground v.1.15,2013-12-13 02:29:00,
2013-12-12 21:35:00,14.8,5.5,30.40,SSW,201,3.0,5.0,66,0.00,,,0.00,Wunderground v.1.15,2013-12-13 02:35:00,
2013-12-12 21:41:00,14.8,5.5,30.40,SSW,200,3.0,5.0,66,0.00,,,0.00,Wunderground v.1.15,2013-12-13 02:41:00,
2013-12-12 21:47:00,14.6,5.3,30.39,South,188,4.0,5.0,66,0.00,,,0.00,Wunderground v.1.15,2013-12-13 02:47:00,
2013-12-12 21:53:00,14.6,5.6,30.39,South,186,4.0,5.0,67,0.00,,,0.00,Wunderground v.1.15,2013-12-13 02:53:00,
2013-12-12 21:59:00,14.6,5.6,30.39,SSW,198,5.0,5.0,67,0.00,,,0.00,Wunderground v.1.15,2013-12-13 02:59:00,
2013-12-12 22:04:00,14.6,5.6,30.39,SSW,193,5.0,7.0,67,0.00,,,0.00,Wunderground v.1.15,2013-12-13 03:04:00,
2013-12-12 22:10:00,14.4,5.8,30.39,SW,217,5.0,7.0,68,0.00,,,0.00,Wunderground v.1.15,2013-12-13 03:10:00,
2013-12-12 22:16:00,14.4,5.8,30.38,SSW,205,4.0,5.0,68,0.00,,,0.00,Wunderground v.1.15,2013-12-13 03:16:00,
2013-12-12 22:22:00,14.4,5.8,30.38,SSW,201,4.0,5.0,68,0.00,,,0.00,Wunderground v.1.15,2013-12-13 03:22:00,
2013-12-12 22:28:00,14.3,5.7,30.38,SSW,195,4.0,5.0,68,0.00,,,0.00,Wunderground v.1.15,2013-12-13 03:28:00,
2013-12-12 22:34:00,14.3,5.7,30.38,SSW,206,4.0,5.0,68,0.00,,,0.00,Wunderground v.1.15,2013-12-13 03:34:00,
2013-12-12 22:40:00,14.1,5.8,30.38,SSW,205,4.0,5.0,69,0.00,,,0.00,Wunderground v.1.15,2013-12-13 03:40:00,
2013-12-12 22:46:00,14.2,5.9,30.38,SSE,167,4.0,5.0,69,0.00,,,0.00,Wunderground v.1.15,2013-12-13 03:46:00,
2013-12-12 22:52:00,14.3,6.0,30.38,SSW,211,4.0,5.0,69,0.00,,,0.00,Wunderground v.1.15,2013-12-13 03:52:00,
2013-12-12 22:58:00,14.3,6.0,30.38,SSW,204,4.0,5.0,69,0.00,,,0.00,Wunderground v.1.15,2013-12-13 03:58:00,
2013-12-12 23:03:00,14.3,6.0,30.38,SSW,205,4.0,5.0,69,0.00,,,0.00,Wunderground v.1.15,2013-12-13 04:03:00,
2013-12-12 23:08:00,14.4,6.1,30.38,SSW,207,4.0,5.0,69,0.00,,,0.00,Wunderground v.1.15,2013-12-13 04:08:00,
2013-12-12 23:14:00,14.5,6.2,30.38,SW,217,4.0,6.0,69,0.00,,,0.00,Wunderground v.1.15,2013-12-13 04:14:00,
2013-12-12 23:20:00,14.6,6.3,30.38,SW,215,5.0,7.0,69,0.00,,,0.00,Wunderground v.1.15,2013-12-13 04:20:00,
2013-12-12 23:26:00,14.7,6.0,30.38,South,181,5.0,5.0,68,0.00,,,0.00,Wunderground v.1.15,2013-12-13 04:26:00,
2013-12-12 23:32:00,14.8,6.1,30.37,SW,218,5.0,5.0,68,0.00,,,0.00,Wunderground v.1.15,2013-12-13 04:32:00,
2013-12-12 23:38:00,14.9,6.2,30.38,SW,228,5.0,7.0,68,0.00,,,0.00,Wunderground v.1.15,2013-12-13 04:38:00,
2013-12-12 23:44:00,15.0,6.7,30.37,SW,224,5.0,8.0,69,0.00,,,0.00,Wunderground v.1.15,2013-12-13 04:44:00,
2013-12-12 23:49:00,14.9,6.6,30.37,South,186,5.0,8.0,69,0.00,,,0.00,Wunderground v.1.15,2013-12-13 04:49:00,
2013-12-12 23:55:00,14.8,6.8,30.37,SSW,200,4.0,5.0,70,0.00,,,0.00,Wunderground v.1.15,2013-12-13 04:55:00,